Wind_Speed
11 14 19 20 20 18 15 12 10 8 7 7 8 10 13 16 18 19 18 18 18 18 18 16 16 17 18 19 20 20 18 17 18 18 19 18 17 16 16 15 14 13 14 14 13 13 13 12 12 11 10 10 9 9 9 9 10 11 11 11 11 11 10
16 16 18 20 20 19 16 15 13 11 9 9 9 10 12 16 19 20 19 19 19 20 19 17 17 18 20 21 21 20 19 18 19 20 20 19 17 17 17 16 14 14 15 15 14 13 13 11 10 8 7 6 6 6 6 6 7 7 8 9 10 10 11
22 19 18 20 21 19 17 16 14 12 11 11 10 10 11 15 19 21 21 20 20 21 20 18 19 20 22 22 21 21 20 20 21 21 21 20 19 19 18 17 15 15 14 14 14 14 12 11 9 7 5 3 3 2 3 4 4 5 6 7 8 8 9
24 21 19 20 22 20 18 17 15 13 13 11 11 12 12 15 19 21 21 20 21 21 20 19 20 22 23 23 22 21 21 21 21 22 22 22 20 20 19 18 16 15 15 15 14 13 12 10 8 6 4 2 1 1 2 3 4 5 6 7 8 8 9
20 21 21 21 23 23 21 18 15 14 12 10 11 13 13 15 19 21 20 20 20 21 21 21 22 22 23 22 22 22 22 22 23 23 23 22 21 19 19 18 17 17 17 16 14 13 12 10 8 7 5 4 4 4 5 5 6 6 7 8 9 9 10
17 20 21 21 23 24 23 19 16 15 14 11 11 13 15 15 17 19 20 20 21 21 21 20 20 21 22 22 22 22 22 23 24 24 23 22 21 20 20 19 19 18 18 16 15 13 12 10 9 8 7 6 6 6 7 7 8 8 8 9 9 10 11
18 19 20 21 21 23 24 22 19 18 17 15 14 16 17 16 17 20 21 20 21 21 20 17 17 19 20 21 21 21 22 22 23 23 23 22 21 21 21 21 20 19 18 17 15 14 12 11 10 9 8 8 8 8 8 9 10 10 10 9 10 11 11
19 20 20 20 20 21 24 24 22 21 20 18 17 16 16 16 18 21 21 21 21 20 19 16 15 16 18 18 19 20 21 23 23 23 23 22 22 22 22 21 20 19 18 18 16 15 13 12 11 10 10 9 9 9 9 10 11 11 11 11 10 10 11
22 22 22 22 21 21 24 25 24 24 22 19 17 16 15 16 19 20 20 21 21 20 18 17 16 17 18 18 19 20 22 23 24 24 23 22 22 22 22 22 21 19 18 18 17 16 14 14 13 12 11 11 11 10 10 11 11 11 12 12 10 10 10
24 25 25 25 23 23 26 28 28 27 24 21 18 17 17 17 19 21 22 21 21 20 20 19 18 19 19 20 20 21 22 23 24 24 23 22 22 22 22 22 21 20 19 18 17 16 16 15 14 13 12 12 12 12 12 12 11 11 11 11 11 10 9
26 28 30 31 29 27 28 31 30 28 25 22 19 18 18 18 19 21 22 22 21 21 21 20 20 20 20 21 21 21 21 22 23 23 23 23 23 23 22 22 21 20 19 19 18 17 17 16 15 14 13 13 13 12 12 12 11 12 12 11 11 10 9
26 31 34 35 34 31 30 32 31 28 25 22 20 19 19 20 21 21 22 22 23 23 22 22 22 21 21 22 21 21 21 22 22 23 24 24 24 24 23 22 21 21 20 20 19 18 17 16 15 15 14 14 13 12 12 11 11 12 12 12 11 11 10
26 32 35 36 35 33 32 34 32 28 25 23 20 20 20 21 22 22 22 23 23 24 23 23 23 23 23 23 23 23 23 23 24 25 25 25 25 25 24 23 22 22 22 21 20 19 17 17 16 16 16 15 13 12 12 12 12 12 13 13 13 12 11
26 31 34 35 35 34 35 35 32 28 26 23 21 21 21 23 23 22 22 23 23 23 23 23 23 24 24 24 24 24 24 25 26 27 26 26 25 24 23 23 23 23 22 21 20 19 18 17 17 17 16 15 14 13 13 12 12 13 13 14 14 13 12
24 28 32 34 34 34 36 34 30 28 26 23 22 23 24 24 24 23 23 23 23 22 22 23 23 24 24 24 24 24 25 26 27 27 26 25 24 24 23 23 23 23 22 21 20 19 18 17 17 16 16 15 14 13 12 12 12 13 13 14 14 13 12
24 26 29 31 33 35 34 31 28 28 27 25 24 25 26 25 23 22 22 22 22 22 22 23 23 23 23 24 24 25 26 26 26 26 25 24 24 24 24 24 24 23 22 21 20 19 18 17 16 16 16 15 14 13 12 12 13 13 13 13 13 13 12
24 26 27 30 33 35 33 30 29 29 28 27 26 26 25 24 21 19 20 21 21 22 22 23 23 24 24 24 25 26 25 25 25 25 25 25 25 25 25 25 25 24 23 22 20 19 18 17 16 15 16 16 15 13 12 13 13 12 12 12 12 12 12
20 24 27 29 31 32 31 31 31 31 30 28 27 27 25 23 21 20 18 19 20 21 22 23 24 24 25 25 26 26 25 24 24 24 24 25 25 26 26 26 25 24 23 22 21 19 18 16 16 16 16 16 15 14 13 14 13 12 12 12 11 11 11
16 19 24 26 26 29 32 32 31 30 31 30 28 27 25 23 22 21 18 18 19 20 20 21 22 23 24 25 26 25 24 24 23 23 23 23 24 25 26 25 24 23 22 21 20 19 17 16 16 16 16 15 15 15 15 15 14 12 12 12 11 10 10
14 16 21 23 26 29 31 30 29 30 32 30 28 27 25 24 23 22 20 20 20 21 21 20 20 20 21 22 22 22 22 22 22 22 22 22 23 24 23 22 22 22 22 20 19 18 17 17 16 17 17 17 17 16 15 15 14 13 13 12 11 10 9
14 15 20 25 28 30 30 28 29 31 31 29 29 29 28 27 26 24 23 22 21 22 23 23 21 20 18 17 17 18 18 19 19 20 20 21 21 21 20 20 21 21 20 20 19 18 18 18 18 18 19 18 18 17 16 15 15 15 14 13 12 11 10
15 16 20 26 29 30 29 29 31 31 29 28 30 31 30 28 28 26 25 24 23 23 23 24 22 20 18 16 15 15 15 15 16 16 17 17 17 17 17 18 19 20 20 20 20 19 19 20 19 19 19 19 19 19 17 17 17 17 16 15 14 12 11
19 19 22 27 29 30 30 31 32 33 31 31 31 31 30 31 30 30 28 27 26 24 24 24 23 21 19 17 15 15 15 14 14 14 14 14 14 14 15 16 18 19 20 20 21 21 21 22 22 21 21 22 21 20 20 19 19 19 18 17 16 14 13
23 23 26 30 31 32 33 34 34 35 35 35 34 32 32 32 32 32 32 31 29 28 26 25 24 22 20 18 17 17 17 16 16 15 14 13 13 14 15 16 18 19 20 20 21 22 23 24 24 24 23 23 22 21 22 21 21 20 19 18 18 17 16
25 24 27 31 33 34 37 37 37 38 38 38 38 37 36 35 34 33 33 32 32 31 29 28 26 24 22 21 20 19 19 19 18 17 16 15 14 15 15 17 18 20 20 21 22 23 25 26 26 25 25 24 23 23 23 22 21 20 19 19 19 18 17
27 25 25 28 32 35 38 40 40 40 41 41 41 40 40 38 37 35 35 34 34 34 32 30 28 28 27 25 23 22 22 22 21 20 20 18 17 17 17 17 18 20 21 21 22 24 26 27 26 26 26 26 25 25 24 22 21 21 21 21 21 19 18
29 28 27 27 29 32 35 38 40 41 42 42 42 40 40 39 38 38 37 37 37 36 35 34 33 32 31 29 27 26 25 24 23 23 23 22 21 20 19 19 19 19 20 22 23 25 26 27 27 27 27 27 27 26 25 24 23 23 23 22 21 20 18
32 31 30 29 28 29 31 33 36 38 39 39 39 39 40 39 38 38 38 38 38 38 38 38 37 35 33 31 30 28 27 27 26 25 25 25 24 22 21 20 20 20 21 22 24 25 26 27 28 28 28 28 28 27 26 26 25 24 24 23 21 20 18
35 34 33 32 30 29 30 30 31 32 34 35 36 38 40 40 39 38 38 38 38 38 38 38 38 36 34 33 31 29 28 28 28 27 27 26 25 24 23 22 21 21 21 22 23 25 27 27 28 29 29 29 29 28 27 26 25 25 24 23 21 19 18
35 35 34 33 31 30 30 30 30 31 33 35 36 38 40 41 40 39 39 38 38 38 38 38 39 37 36 34 32 30 30 29 29 29 28 28 27 26 25 24 23 22 21 21 22 23 26 28 28 29 30 30 29 28 27 27 27 26 24 23 21 20 19
34 34 34 34 33 31 29 29 30 31 32 33 34 35 37 39 40 40 40 39 39 40 40 41 41 39 37 36 34 32 32 31 30 30 30 30 30 29 28 27 25 23 22 21 20 20 22 26 29 30 30 30 29 29 29 29 28 27 25 24 23 22 23
34 33 33 33 33 32 29 29 28 29 29 29 30 31 32 35 38 39 40 41 41 41 41 41 41 40 39 38 36 35 35 34 32 31 32 33 33 33 32 30 28 25 23 21 20 19 19 23 27 30 31 31 30 29 30 30 29 28 27 26 25 25 26
36 35 33 33 34 33 30 28 28 28 27 27 27 28 29 31 34 37 39 42 43 43 44 43 43 42 41 40 40 39 38 37 36 35 35 35 35 35 34 33 31 28 25 23 22 20 19 21 26 29 30 31 30 30 30 30 30 29 28 28 28 28 28
37 37 36 35 36 35 33 31 29 28 28 27 27 28 28 29 31 34 37 39 42 43 45 45 45 45 44 44 44 44 43 41 40 39 37 37 37 37 36 36 34 32 29 26 25 23 22 21 24 27 30 31 31 30 30 30 31 30 30 30 30 31 31
38 38 39 39 38 38 37 34 32 30 30 29 29 29 29 29 30 31 32 35 37 39 41 42 43 44 44 45 45 45 45 44 44 43 41 40 39 39 39 38 38 36 35 32 29 28 26 24 24 26 29 31 31 30 30 30 31 32 32 33 33 33 34
42 41 40 40 41 40 39 37 35 34 33 33 33 32 30 30 29 29 30 31 32 34 36 37 39 40 40 41 42 42 43 42 42 42 41 40 40 41 41 41 41 40 39 38 35 33 30 28 26 26 28 30 31 31 32 32 33 34 34 34 35 35 35
46 44 43 42 41 40 40 39 38 37 37 37 37 35 33 31 29 28 29 30 30 31 32 33 34 35 35 36 37 37 38 38 38 38 38 38 38 39 40 41 42 42 42 42 40 38 35 33 31 30 30 30 31 32 33 34 35 35 36 36 36 37 37
49 47 46 45 42 40 41 41 40 40 40 39 39 38 35 33 30 28 29 30 30 31 31 31 31 32 32 32 32 33 33 33 33 33 34 35 35 36 37 38 40 42 43 43 43 42 40 38 35 34 33 32 33 34 35 36 37 37 37 38 38 38 39
Wind_Direction
206 198 202 203 203 198 191 198 217 227 224 219 220 222 220 213 207 208 206 202 202 204 203 199 198 199 199 201 203 204 199 187 181 185 190 192 189 183 179 180 179 172 165 160 150 139 133 125 118 111 103 96 88 79 72 65 59 57 55 51 46 42 37
200 195 199 204 202 194 193 203 212 215 214 213 219 223 221 216 210 207 206 204 200 200 199 196 194 196 199 201 201 201 195 184 182 185 188 191 188 183 183 182 180 174 167 161 152 143 138 132 125 118 109 96 84 70 58 49 42 38 38 37 36 35 33
195 192 197 205 203 198 202 206 205 208 212 214 218 219 219 218 213 208 205 203 199 196 196 195 192 194 199 202 200 198 192 185 183 185 187 189 188 185 185 184 182 177 168 161 154 148 144 140 137 133 128 113 87 57 29 15 6 2 3 5 7 11 15
191 190 195 203 205 206 207 205 203 207 210 213 215 215 215 215 214 210 205 203 199 193 194 196 194 195 200 202 200 196 191 186 185 186 187 189 188 185 185 184 183 176 168 165 160 153 150 150 153 159 167 183 223 285 307 318 322 326 330 332 336 340 346
196 192 193 199 206 210 209 207 207 206 202 205 213 216 214 213 214 212 206 202 199 194 195 197 195 196 200 202 200 196 191 188 188 188 189 189 187 184 184 185 184 177 172 170 166 159 159 164 171 182 196 216 240 262 280 291 297 302 307 311 314 319 323
216 205 198 200 207 212 214 216 211 203 197 202 215 218 215 211 211 211 207 201 198 197 200 201 198 198 201 202 202 199 195 192 192 192 192 190 186 184 185 185 183 181 178 174 170 168 171 177 184 196 210 225 243 259 272 281 288 292 295 298 302 305 309
231 221 210 207 210 214 220 222 214 205 203 208 217 217 210 205 204 207 206 201 197 199 202 205 203 202 204 203 203 202 199 197 196 196 195 191 186 185 187 186 184 183 181 178 177 180 184 192 201 212 224 236 246 257 267 276 284 288 290 291 293 296 299
233 229 221 215 213 214 217 218 214 208 207 212 218 217 210 205 203 203 201 199 198 197 199 203 202 203 206 205 203 202 200 200 200 199 197 191 187 187 188 188 188 185 182 182 187 192 198 206 215 222 231 240 249 257 265 272 279 284 286 287 289 291 293
229 230 227 222 216 213 213 213 213 209 209 215 219 214 207 204 203 201 197 197 196 193 195 199 200 201 201 198 199 200 200 200 201 200 197 192 188 189 189 190 191 189 187 191 195 200 207 214 220 227 234 241 248 255 260 265 270 274 280 285 289 290 290
216 223 228 227 221 215 212 212 212 209 209 213 212 206 201 200 200 198 196 195 192 190 192 195 199 200 196 193 194 197 199 199 200 199 196 192 190 190 191 192 192 192 196 200 203 207 213 219 224 230 235 240 244 249 253 259 264 268 274 281 286 288 290
205 215 223 225 222 217 213 213 212 209 209 210 205 199 200 202 200 196 195 194 191 191 191 193 196 196 193 192 193 193 196 197 198 198 195 192 191 192 192 194 194 197 202 206 208 213 219 224 229 232 233 236 239 242 247 254 262 268 271 275 280 282 283
202 209 214 215 215 213 211 213 213 210 210 208 200 196 199 203 201 195 192 193 192 191 191 191 193 192 191 191 190 189 191 193 195 197 196 195 194 193 194 195 197 201 206 210 214 218 223 227 229 230 230 232 235 239 245 251 256 262 267 272 275 273 272
203 205 206 205 205 207 209 211 212 212 211 205 197 196 200 202 200 195 191 193 193 192 191 190 190 189 189 189 188 187 188 189 192 195 197 197 197 197 197 198 200 205 209 214 218 222 224 226 226 227 229 231 233 237 243 248 252 255 260 264 266 264 262
203 202 204 203 200 202 208 210 211 211 207 201 196 195 199 200 197 194 191 192 193 192 192 191 191 190 189 188 187 186 186 189 193 196 199 200 200 201 201 202 205 209 214 217 220 222 223 225 227 229 232 233 234 236 240 245 249 252 256 258 259 257 255
203 201 203 202 199 202 208 208 207 206 200 196 195 195 197 196 193 192 191 190 191 192 192 193 192 192 190 188 186 186 188 191 195 198 201 202 203 205 206 208 210 214 218 219 219 220 223 226 229 231 234 236 236 238 240 243 247 250 254 256 256 255 250
203 203 203 201 201 205 207 204 201 199 195 193 193 193 195 193 189 191 192 190 190 192 193 195 194 194 193 190 189 190 192 194 196 199 200 202 204 206 208 210 213 216 218 217 217 219 222 225 228 230 233 236 238 240 243 246 251 253 253 254 254 252 247
200 205 204 201 203 206 204 200 198 195 191 189 190 192 193 189 182 182 186 188 189 191 193 195 195 195 195 195 196 196 196 196 198 199 200 201 204 207 209 211 213 215 215 215 216 218 220 224 227 229 232 235 236 239 243 249 254 256 255 253 250 246 241
199 206 205 204 206 205 201 200 199 194 189 188 189 190 189 181 170 167 171 178 184 187 191 194 195 196 197 198 200 200 199 199 199 200 201 203 205 207 209 210 212 213 214 215 217 218 220 223 227 230 232 233 235 237 242 249 252 253 252 250 246 240 233
199 207 210 208 205 201 199 200 199 194 190 190 189 187 182 172 161 155 156 165 173 177 181 185 190 193 196 200 201 201 201 200 200 201 202 204 206 208 210 211 212 213 215 216 218 219 221 225 229 233 235 235 235 235 240 247 249 247 246 244 240 234 225
201 208 209 204 199 198 198 198 196 192 191 191 189 185 178 168 160 158 162 166 169 169 170 173 178 184 192 198 200 201 202 201 201 202 203 204 207 208 210 211 213 216 219 221 223 224 225 226 229 232 234 235 235 236 239 243 243 240 238 236 232 227 221
205 209 204 196 194 196 194 190 188 188 191 191 187 184 179 171 169 173 176 176 174 171 170 171 173 178 183 189 191 194 198 200 201 204 206 208 210 211 212 215 218 222 225 226 228 228 228 229 230 232 234 235 236 238 240 239 237 234 230 228 227 224 221
210 205 198 193 192 191 186 182 183 185 187 188 186 185 181 176 179 184 183 181 180 177 174 173 174 176 180 182 185 187 190 193 198 204 207 210 212 213 216 220 224 228 230 231 232 232 232 233 233 233 232 232 234 237 238 235 233 231 227 224 223 222 220
206 197 190 188 187 186 181 178 181 184 186 188 188 186 183 184 186 187 186 186 186 183 179 176 175 177 181 185 191 195 197 197 200 204 208 208 208 211 217 222 226 230 232 233 234 234 234 235 233 231 230 229 230 233 234 233 231 231 228 224 221 220 218
201 193 188 185 182 181 180 179 182 186 189 192 192 191 190 191 191 189 188 189 190 190 186 181 181 182 185 190 197 203 206 207 207 208 211 212 211 213 219 224 228 230 231 232 233 233 233 233 232 230 228 229 230 231 232 232 231 231 229 224 221 220 219
200 195 190 187 184 182 182 183 185 188 191 193 195 195 195 196 195 193 192 192 193 194 191 188 187 189 192 197 204 209 212 213 214 214 215 217 218 220 225 229 230 231 231 232 233 233 232 232 231 229 227 228 229 231 232 232 231 231 229 225 221 220 221
199 198 194 192 192 188 188 189 190 191 192 193 195 197 198 198 197 195 195 196 196 196 194 193 194 196 197 201 207 213 216 217 218 220 220 221 223 226 230 234 235 235 234 233 234 234 233 232 231 228 226 226 228 231 232 231 230 230 229 227 223 222 224
197 198 197 199 201 199 198 197 196 195 195 196 197 198 200 201 200 197 197 199 199 198 196 197 199 201 202 203 207 212 216 218 220 222 223 225 226 228 232 236 238 240 239 236 234 234 234 233 231 228 225 224 226 230 232 232 231 230 230 229 227 226 228
197 198 199 202 205 207 207 206 204 202 201 200 200 201 203 204 203 201 200 200 202 202 200 199 201 204 205 206 207 210 214 217 221 224 226 227 229 231 233 236 239 242 243 241 238 234 233 232 231 229 226 225 226 229 232 234 234 233 233 232 233 235 237
199 199 201 203 205 207 209 209 208 205 202 200 201 203 205 207 206 204 202 202 204 206 204 201 202 205 207 207 208 210 213 216 221 226 228 228 230 233 236 237 238 241 245 247 244 237 232 230 231 229 228 227 228 230 232 235 235 234 234 236 239 244 249
202 202 203 204 206 207 207 208 206 202 200 199 199 201 205 207 207 206 203 202 204 205 205 204 205 207 208 208 209 211 213 215 221 227 230 230 230 234 237 239 240 241 243 247 248 242 233 228 228 229 228 229 231 232 233 233 233 234 236 238 243 248 251
204 203 204 204 205 205 205 205 204 201 200 199 198 199 202 204 206 206 203 203 204 205 205 206 207 209 209 209 209 211 212 213 218 226 230 232 232 234 236 238 239 241 242 245 249 248 238 229 226 227 228 230 232 234 233 232 232 234 237 240 244 248 250
208 205 205 206 205 206 206 205 201 199 197 196 196 197 199 202 205 205 204 203 204 205 206 208 209 209 209 209 209 211 211 211 215 221 227 232 235 237 239 239 239 239 241 244 249 252 244 232 227 227 228 230 232 233 233 233 234 236 239 242 245 248 250
214 209 209 210 209 210 211 210 204 199 196 194 195 197 198 201 204 205 206 205 204 205 206 207 208 209 209 210 210 211 211 211 213 217 223 228 233 237 241 243 243 242 242 244 248 252 247 236 230 230 231 231 232 233 234 235 237 239 242 245 248 250 252
218 214 212 213 213 213 216 216 212 205 200 197 198 198 200 202 204 206 208 209 209 210 210 210 211 211 211 212 212 212 213 212 213 216 220 224 228 234 239 243 247 248 247 246 246 248 248 241 234 233 234 235 235 236 237 238 239 241 244 246 248 251 252
221 219 216 214 214 215 217 218 216 212 208 205 203 201 201 203 205 207 210 211 212 214 215 216 218 218 218 218 218 218 218 218 218 218 220 221 224 228 233 238 243 247 250 249 247 245 245 244 240 236 237 238 238 240 242 243 243 244 245 247 250 252 256
220 223 222 219 216 217 218 218 217 216 214 212 210 207 204 204 205 209 212 213 214 215 217 218 220 222 223 224 225 226 227 227 227 226 226 226 227 228 230 233 237 242 246 249 250 247 245 244 243 241 240 239 240 241 244 245 246 246 248 251 254 258 261
219 222 225 224 219 218 220 220 220 219 218 216 214 212 210 208 208 211 215 216 216 217 219 221 222 222 224 226 227 229 231 232 233 233 233 234 234 234 233 233 235 238 241 245 248 250 249 246 244 243 242 241 240 242 243 245 246 248 251 253 257 261 264
219 221 224 226 225 223 223 223 223 223 222 220 218 218 217 215 215 217 220 221 220 219 220 222 224 226 227 228 229 231 233 234 235 236 237 238 239 239 239 237 237 238 239 241 244 248 249 249 247 246 245 244 243 242 243 245 247 249 252 255 258 261 263
Height
5876 5878 5879 5881 5883 5885 5887 5889 5890 5891 5892 5894 5895 5896 5896 5896 5897 5898 5899 5900 5902 5903 5906 5908 5911 5913 5915 5916 5918 5920 5922 5924 5926 5927 5929 5930 5931 5933 5933 5934 5935 5936 5937 5938 5939 5940 5941 5942 5943 5944 5944 5945 5946 5946 5946 5947 5947 5947 5947 5948 5948 5948 5948
5873 5875 5878 5880 5881 5883 5885 5886 5888 5889 5890 5892 5893 5894 5895 5896 5896 5897 5899 5899 5900 5902 5904 5907 5909 5911 5913 5915 5917 5919 5921 5923 5924 5926 5927 5929 5931 5932 5933 5933 5934 5935 5936 5937 5938 5939 5940 5942 5943 5944 5944 5945 5946 5946 5947 5947 5947 5947 5947 5948 5948 5948 5948
5869 5872 5875 5878 5880 5882 5883 5885 5886 5887 5888 5890 5891 5893 5894 5895 5895 5896 5897 5898 5899 5901 5903 5905 5907 5910 5912 5914 5916 5918 5920 5922 5923 5925 5926 5928 5930 5931 5932 5933 5934 5935 5936 5937 5938 5939 5940 5941 5942 5943 5944 5945 5946 5946 5947 5947 5947 5947 5947 5948 5948 5948 5949
5866 5869 5872 5875 5878 5880 5881 5883 5884 5885 5886 5888 5889 5891 5892 5893 5894 5895 5896 5897 5898 5900 5902 5904 5906 5908 5910 5912 5915 5917 5919 5921 5922 5923 5925 5926 5928 5930 5932 5933 5933 5934 5935 5936 5937 5938 5939 5940 5942 5943 5944 5945 5945 5946 5947 5947 5947 5947 5947 5947 5948 5948 5948
5865 5867 5869 5872 5876 5878 5879 5880 5882 5883 5884 5886 5887 5889 5890 5891 5892 5894 5895 5896 5898 5899 5900 5902 5904 5906 5909 5911 5914 5916 5918 5919 5920 5922 5923 5925 5927 5929 5931 5932 5933 5934 5935 5936 5937 5938 5939 5940 5941 5942 5943 5944 5945 5945 5946 5946 5947 5947 5947 5947 5947 5947 5948
5863 5866 5867 5869 5872 5875 5877 5879 5880 5881 5882 5884 5885 5887 5888 5889 5891 5893 5894 5895 5896 5897 5899 5901 5903 5905 5908 5910 5913 5915 5917 5918 5920 5921 5922 5924 5926 5928 5930 5932 5933 5934 5935 5936 5937 5938 5939 5940 5941 5942 5942 5943 5944 5945 5945 5945 5946 5946 5947 5947 5947 5947 5947
5861 5864 5865 5867 5870 5872 5875 5876 5878 5879 5880 5881 5882 5884 5885 5887 5888 5890 5892 5893 5895 5896 5898 5900 5903 5905 5907 5909 5912 5914 5916 5918 5919 5920 5922 5923 5925 5927 5929 5931 5932 5933 5934 5935 5937 5938 5939 5939 5940 5941 5941 5942 5943 5944 5944 5944 5945 5945 5946 5946 5947 5947 5947
5858 5860 5863 5865 5867 5869 5872 5873 5875 5877 5877 5879 5880 5882 5883 5885 5886 5888 5890 5892 5893 5895 5897 5899 5901 5904 5906 5908 5911 5913 5915 5917 5918 5919 5921 5923 5924 5926 5928 5930 5931 5933 5934 5935 5936 5937 5938 5939 5939 5940 5940 5941 5942 5942 5943 5943 5944 5944 5944 5945 5946 5946 5946
5854 5857 5860 5861 5864 5866 5868 5871 5873 5874 5875 5876 5878 5880 5882 5883 5885 5886 5888 5890 5891 5893 5895 5897 5899 5901 5904 5906 5909 5911 5913 5915 5917 5918 5920 5922 5924 5925 5927 5929 5930 5932 5933 5935 5935 5936 5937 5938 5938 5939 5939 5940 5941 5941 5942 5942 5943 5943 5943 5943 5944 5945 5945
5851 5853 5856 5858 5860 5863 5865 5868 5869 5870 5872 5874 5876 5878 5880 5881 5883 5884 5886 5888 5890 5892 5893 5895 5897 5899 5902 5904 5906 5909 5911 5913 5915 5918 5919 5921 5923 5924 5926 5928 5929 5931 5933 5934 5935 5936 5936 5937 5938 5938 5939 5939 5939 5940 5940 5941 5941 5942 5942 5942 5943 5943 5944
5847 5850 5853 5855 5857 5859 5862 5864 5866 5868 5870 5871 5874 5876 5878 5880 5881 5883 5884 5886 5888 5890 5891 5893 5895 5897 5900 5902 5904 5907 5910 5912 5914 5916 5919 5920 5922 5923 5925 5927 5929 5930 5932 5933 5934 5935 5935 5936 5937 5937 5938 5938 5938 5938 5939 5939 5940 5940 5940 5941 5941 5942 5942
5843 5846 5848 5851 5853 5856 5859 5861 5863 5866 5868 5869 5872 5874 5876 5878 5879 5881 5882 5884 5886 5888 5889 5891 5893 5895 5898 5900 5903 5906 5908 5911 5913 5915 5917 5919 5920 5922 5924 5926 5928 5929 5930 5931 5932 5933 5934 5935 5936 5936 5936 5937 5937 5937 5937 5938 5938 5939 5939 5939 5940 5940 5940
5840 5842 5844 5847 5850 5853 5856 5858 5861 5864 5865 5867 5870 5872 5874 5876 5877 5878 5880 5882 5884 5885 5887 5890 5892 5894 5896 5899 5901 5904 5906 5909 5911 5913 5915 5917 5919 5921 5923 5925 5926 5928 5929 5930 5931 5932 5933 5933 5934 5935 5935 5935 5935 5936 5936 5937 5937 5937 5938 5938 5938 5939 5939
5838 5839 5842 5844 5846 5850 5853 5856 5859 5861 5863 5865 5867 5870 5872 5873 5875 5876 5878 5879 5882 5884 5886 5888 5891 5893 5895 5897 5900 5902 5905 5907 5909 5911 5913 5915 5918 5920 5922 5924 5925 5926 5927 5928 5929 5930 5931 5932 5932 5933 5933 5934 5934 5934 5935 5935 5936 5936 5936 5936 5936 5937 5937
5836 5837 5839 5841 5844 5847 5850 5853 5857 5859 5861 5863 5865 5867 5870 5871 5872 5874 5875 5877 5880 5882 5885 5887 5890 5892 5894 5897 5899 5901 5903 5905 5907 5909 5912 5914 5916 5919 5920 5922 5923 5925 5926 5927 5928 5929 5930 5930 5931 5931 5932 5932 5932 5933 5933 5934 5934 5934 5934 5934 5934 5935 5936
5834 5835 5837 5840 5842 5845 5848 5851 5855 5857 5859 5861 5863 5866 5868 5870 5871 5873 5875 5876 5879 5881 5883 5886 5889 5891 5894 5896 5898 5899 5901 5903 5905 5907 5910 5912 5914 5916 5918 5920 5921 5923 5924 5925 5926 5927 5928 5929 5930 5930 5930 5930 5930 5931 5931 5931 5931 5932 5932 5932 5933 5933 5934
5832 5834 5836 5838 5840 5843 5846 5849 5852 5854 5857 5859 5862 5865 5867 5868 5870 5872 5873 5875 5877 5880 5882 5885 5887 5890 5892 5894 5896 5897 5899 5902 5904 5906 5908 5910 5912 5914 5916 5917 5919 5920 5921 5923 5924 5925 5926 5927 5928 5928 5928 5928 5929 5929 5929 5929 5929 5929 5930 5930 5931 5931 5931
5831 5832 5834 5836 5838 5841 5844 5847 5850 5852 5855 5858 5860 5863 5865 5867 5869 5871 5873 5875 5876 5879 5881 5883 5886 5888 5890 5892 5894 5896 5898 5900 5902 5904 5906 5907 5909 5911 5913 5915 5917 5918 5919 5921 5922 5923 5924 5925 5926 5926 5926 5927 5927 5927 5927 5927 5927 5927 5927 5928 5928 5929 5930
5829 5831 5833 5835 5837 5840 5842 5845 5848 5851 5854 5857 5859 5862 5865 5866 5868 5870 5873 5874 5876 5878 5880 5882 5885 5887 5888 5890 5893 5895 5897 5899 5900 5902 5904 5905 5907 5908 5910 5913 5915 5916 5917 5918 5920 5921 5922 5923 5924 5924 5925 5925 5925 5925 5925 5925 5925 5925 5925 5926 5927 5927 5928
5828 5829 5831 5834 5836 5839 5841 5844 5847 5850 5853 5856 5859 5862 5863 5865 5867 5869 5871 5873 5875 5877 5879 5881 5884 5885 5887 5889 5891 5894 5895 5897 5899 5900 5902 5903 5905 5906 5909 5911 5913 5914 5915 5916 5918 5919 5920 5921 5922 5922 5922 5923 5923 5923 5923 5923 5923 5923 5923 5924 5925 5925 5926
5826 5827 5829 5832 5835 5837 5839 5842 5845 5848 5852 5854 5857 5859 5861 5863 5865 5867 5869 5871 5874 5876 5878 5880 5882 5884 5886 5888 5891 5893 5894 5896 5898 5899 5900 5902 5903 5905 5907 5909 5910 5912 5913 5914 5916 5917 5918 5919 5920 5920 5920 5921 5921 5921 5921 5921 5921 5921 5922 5923 5923 5924 5925
5824 5825 5828 5831 5834 5836 5838 5841 5844 5848 5851 5853 5855 5857 5859 5861 5863 5865 5867 5870 5872 5875 5877 5879 5882 5884 5886 5888 5890 5892 5893 5895 5897 5898 5899 5900 5902 5904 5905 5907 5908 5909 5910 5912 5913 5914 5916 5917 5918 5918 5918 5918 5918 5919 5919 5919 5919 5919 5920 5921 5922 5922 5923
5821 5822 5826 5829 5832 5835 5837 5840 5843 5846 5848 5850 5853 5855 5857 5859 5860 5863 5865 5868 5871 5873 5876 5878 5881 5883 5885 5887 5889 5891 5892 5894 5895 5897 5898 5899 5901 5902 5903 5904 5905 5906 5908 5909 5911 5912 5913 5914 5915 5915 5916 5916 5916 5916 5916 5917 5917 5918 5919 5920 5921 5921 5922
5818 5820 5822 5826 5829 5832 5834 5837 5839 5842 5844 5847 5850 5853 5855 5856 5858 5860 5863 5865 5869 5871 5874 5877 5880 5882 5884 5886 5888 5889 5891 5893 5894 5895 5897 5898 5899 5900 5901 5902 5903 5904 5905 5907 5908 5909 5910 5911 5912 5913 5913 5913 5914 5914 5914 5914 5915 5916 5917 5918 5919 5920 5921
5817 5819 5820 5823 5826 5828 5831 5833 5835 5837 5840 5843 5845 5848 5851 5853 5855 5858 5861 5864 5866 5869 5872 5875 5878 5880 5883 5884 5886 5887 5889 5890 5892 5894 5895 5896 5897 5898 5899 5899 5900 5901 5903 5904 5905 5906 5907 5908 5909 5910 5911 5911 5911 5911 5911 5912 5914 5915 5916 5917 5918 5919 5919
5815 5817 5819 5822 5824 5826 5828 5829 5831 5834 5836 5839 5841 5844 5847 5850 5853 5856 5859 5862 5864 5867 5870 5873 5876 5878 5879 5881 5883 5885 5886 5888 5890 5891 5893 5894 5895 5896 5897 5897 5898 5899 5900 5902 5902 5903 5904 5905 5907 5908 5908 5908 5908 5908 5909 5910 5912 5913 5914 5915 5916 5917 5918
5812 5815 5817 5820 5822 5824 5826 5827 5829 5831 5833 5836 5839 5843 5845 5848 5851 5854 5857 5859 5861 5864 5867 5870 5871 5873 5875 5878 5880 5882 5883 5885 5887 5889 5890 5891 5893 5894 5895 5895 5896 5897 5898 5899 5899 5900 5901 5903 5904 5905 5905 5906 5906 5906 5907 5908 5909 5910 5911 5912 5914 5915 5915
5809 5812 5815 5817 5820 5822 5824 5826 5828 5830 5833 5836 5839 5842 5844 5846 5849 5851 5854 5856 5859 5861 5863 5865 5867 5869 5872 5874 5877 5879 5881 5883 5884 5886 5887 5888 5890 5891 5892 5893 5894 5894 5895 5896 5896 5897 5898 5900 5901 5902 5902 5903 5904 5904 5905 5906 5907 5908 5909 5910 5911 5912 5912
5806 5809 5812 5814 5817 5820 5822 5825 5827 5830 5832 5835 5837 5839 5841 5844 5847 5849 5851 5854 5856 5858 5860 5862 5864 5867 5869 5872 5874 5877 5879 5880 5881 5882 5884 5885 5887 5888 5890 5890 5891 5892 5892 5893 5893 5894 5895 5897 5898 5899 5899 5900 5901 5902 5903 5904 5905 5906 5907 5908 5908 5909 5909
5803 5806 5809 5812 5815 5818 5820 5823 5825 5827 5830 5832 5834 5836 5839 5841 5844 5846 5848 5851 5853 5855 5857 5860 5862 5864 5867 5869 5872 5874 5875 5877 5878 5879 5881 5882 5884 5885 5887 5888 5888 5889 5890 5890 5891 5891 5892 5893 5895 5896 5897 5898 5899 5900 5901 5902 5902 5904 5905 5905 5905 5906 5906
5801 5803 5806 5809 5812 5815 5818 5821 5823 5825 5827 5830 5832 5834 5836 5838 5840 5843 5845 5848 5850 5851 5854 5856 5858 5861 5863 5866 5868 5870 5872 5873 5875 5876 5877 5878 5880 5882 5883 5884 5885 5886 5887 5888 5888 5889 5889 5890 5892 5893 5894 5895 5896 5897 5898 5899 5900 5901 5902 5902 5903 5903 5904
5798 5800 5803 5806 5809 5812 5816 5818 5820 5822 5825 5827 5829 5831 5833 5836 5838 5840 5842 5844 5846 5848 5850 5852 5854 5857 5859 5861 5863 5865 5867 5869 5871 5873 5874 5875 5876 5878 5879 5880 5882 5883 5884 5885 5886 5886 5887 5887 5888 5890 5891 5892 5893 5894 5895 5897 5898 5899 5899 5900 5900 5900 5901
5795 5797 5800 5802 5805 5809 5812 5814 5817 5820 5822 5824 5826 5829 5831 5833 5835 5838 5840 5841 5843 5844 5846 5848 5850 5853 5855 5857 5859 5860 5862 5865 5867 5869 5870 5872 5873 5874 5875 5876 5877 5879 5881 5882 5883 5884 5884 5885 5886 5887 5888 5889 5890 5891 5892 5894 5895 5896 5896 5896 5896 5897 5897
5791 5794 5797 5799 5802 5805 5808 5810 5813 5817 5819 5821 5824 5826 5828 5831 5833 5835 5837 5839 5840 5841 5843 5844 5846 5848 5850 5852 5854 5856 5858 5860 5862 5864 5866 5868 5870 5871 5872 5873 5874 5875 5877 5878 5880 5880 5881 5882 5883 5884 5885 5886 5887 5888 5889 5890 5891 5892 5892 5892 5892 5892 5892
5786 5790 5793 5797 5799 5801 5804 5806 5809 5813 5815 5818 5820 5823 5825 5827 5830 5832 5834 5835 5837 5839 5840 5842 5844 5845 5847 5848 5850 5852 5853 5855 5857 5859 5861 5863 5865 5867 5869 5870 5871 5872 5873 5874 5875 5876 5878 5878 5879 5880 5881 5882 5884 5885 5886 5887 5888 5888 5888 5888 5888 5888 5889
5781 5785 5789 5793 5796 5798 5800 5803 5806 5808 5811 5814 5817 5819 5821 5824 5826 5828 5830 5832 5834 5835 5837 5839 5840 5842 5844 5846 5847 5849 5850 5851 5853 5855 5857 5859 5860 5862 5864 5865 5867 5868 5869 5869 5870 5872 5873 5875 5875 5876 5877 5878 5880 5881 5882 5883 5883 5883 5884 5884 5884 5884 5885
5776 5780 5784 5788 5792 5795 5797 5799 5802 5804 5807 5810 5812 5815 5817 5820 5822 5824 5827 5829 5830 5832 5834 5835 5837 5839 5840 5842 5844 5846 5847 5849 5850 5852 5853 5855 5856 5858 5859 5861 5862 5863 5864 5865 5866 5867 5869 5870 5871 5872 5872 5873 5875 5876 5877 5878 5878 5879 5879 5879 5880 5880 5880
5772 5776 5780 5783 5788 5791 5794 5796 5798 5800 5803 5806 5809 5811 5814 5816 5819 5821 5823 5825 5827 5829 5830 5832 5833 5835 5837 5838 5840 5842 5844 5845 5847 5849 5850 5851 5853 5854 5855 5856 5858 5859 5860 5861 5862 5863 5864 5865 5866 5867 5868 5869 5870 5871 5872 5873 5873 5874 5874 5875 5875 5876 5876